Weather History for Hot Springs, VA

Change the Weather History Date:

Friday, November 2, 2012

  Actual Average Record
Temperature  
Mean Temperature 34 °F -  
Max Temperature 39 °F 51 °F 71 °F (2003)
Min Temperature 30 °F 36 °F 19 °F (1996)
Degree Days  
Heating Degree Days 30    
Moisture  
Dew Point 23 °F    
Average Humidity 64    
Maximum Humidity 87    
Minimum Humidity 45    
Precipitation  
Precipitation 0.00 in - - ()
Sea Level Pressure  
Sea Level Pressure 29.81 in    
Wind  
Wind Speed 18 mph (WNW)    
Max Wind Speed 26 mph    
Max Gust Speed 39 mph    
Visibility 10 miles    
Events Snow    
Averages and records for this station are not official NWS values.
T = Trace of Precipitation, MM = Missing Value Source: NWS Daily Summary

Daily Weather History Graph

Daily Weather History Graph

Search for Another Location

Airport:

Trip Planner

Search our weather history database for the weather conditions in past years. The results will help you decide how hot, cold, wet, or windy it might be!

Date:

Astronomy

Nov. 02, 2012 Rise Set
Actual Time 7:46 AM EDT 6:18 PM EDT
Civil Twilight 7:19 AM EDT 6:46 PM EDT
Nautical Twilight 6:48 AM EDT 7:17 PM EDT
Astronomical Twilight 6:17 AM EDT 7:47 PM EDT
Moon 9:06 PM EDT (11/2) 11:03 AM EDT (11/2)
Length of Visible Light 11h 26m
Length of Day
10h 32m
Waning Gibbous, 87% of the Moon is Illuminated
Nov 2
Waning Gibbous
Nov 6
Last Quarter
Nov 13
New
Nov 20
First Quarter
Nov 28
Full

Hourly Weather History & Observations

Time (EDT) Temp. Windchill Dew Point Humidity Pressure Visibility Wind Dir Wind Speed Gust Speed Precip Events Conditions
12:15 AM 33.8 °F 22.2 °F 23.0 °F 65% 29.76 in 10.0 mi West 20.7 mph 33.4 mph N/A   Mostly Cloudy
12:35 AM 33.8 °F 20.8 °F 21.2 °F 60% 29.75 in 10.0 mi WNW 26.5 mph 34.5 mph N/A   Mostly Cloudy
12:55 AM 33.8 °F 21.9 °F 21.2 °F 60% 29.77 in 10.0 mi West 21.9 mph 31.1 mph N/A   Mostly Cloudy
1:15 AM 33.8 °F 21.9 °F 21.2 °F 60% 29.76 in 10.0 mi West 21.9 mph 28.8 mph N/A   Overcast
1:35 AM 33.8 °F 22.5 °F 21.2 °F 60% 29.76 in 10.0 mi WNW 19.6 mph 27.6 mph N/A   Overcast
1:55 AM 33.8 °F 23.2 °F 21.2 °F 60% 29.76 in 10.0 mi WNW 17.3 mph 27.6 mph N/A   Overcast
2:15 AM 33.8 °F 23.2 °F 21.2 °F 60% 29.76 in 10.0 mi WNW 17.3 mph 24.2 mph N/A   Overcast
2:35 AM 33.8 °F 23.5 °F 21.2 °F 60% 29.75 in 10.0 mi West 16.1 mph 23.0 mph N/A   Overcast
2:55 AM 33.8 °F 23.5 °F 21.2 °F 60% 29.75 in 10.0 mi West 16.1 mph 23.0 mph N/A   Scattered Clouds
3:15 AM 33.8 °F 23.2 °F 21.2 °F 60% 29.75 in 10.0 mi West 17.3 mph 24.2 mph N/A   Mostly Cloudy
3:35 AM 33.8 °F 23.5 °F 21.2 °F 60% 29.75 in 10.0 mi West 16.1 mph 21.9 mph N/A   Overcast
3:55 AM 33.8 °F 23.5 °F 21.2 °F 60% 29.75 in 10.0 mi WNW 16.1 mph 25.3 mph N/A   Overcast
4:15 AM 33.8 °F 23.5 °F 21.2 °F 60% 29.74 in 10.0 mi West 16.1 mph 24.2 mph N/A   Overcast
4:35 AM 33.8 °F 24.3 °F 21.2 °F 60% 29.75 in 10.0 mi West 13.8 mph 21.9 mph N/A   Overcast
4:55 AM 33.8 °F 23.9 °F 21.2 °F 60% 29.75 in 10.0 mi West 15.0 mph 20.7 mph N/A   Overcast
5:15 AM 33.8 °F 23.9 °F 21.2 °F 60% 29.75 in 10.0 mi West 15.0 mph 23.0 mph N/A   Overcast
5:35 AM 33.8 °F 23.5 °F 21.2 °F 60% 29.75 in 10.0 mi West 16.1 mph 21.9 mph N/A   Overcast
5:55 AM 33.8 °F 24.8 °F 21.2 °F 60% 29.75 in 10.0 mi West 12.7 mph 20.7 mph N/A   Overcast
6:15 AM 33.8 °F 23.9 °F 23.0 °F 65% 29.76 in 10.0 mi West 15.0 mph 19.6 mph N/A   Overcast
6:35 AM 33.8 °F 24.8 °F 23.0 °F 65% 29.76 in 10.0 mi West 12.7 mph - N/A   Overcast
6:55 AM 33.8 °F 24.3 °F 23.0 °F 65% 29.76 in 10.0 mi West 13.8 mph - N/A   Overcast
7:15 AM 33.8 °F 24.8 °F 23.0 °F 65% 29.76 in 10.0 mi West 12.7 mph 18.4 mph N/A   Overcast
7:35 AM 33.8 °F 25.8 °F 23.0 °F 65% 29.76 in 10.0 mi West 10.4 mph 19.6 mph N/A   Overcast
7:55 AM 33.8 °F 23.5 °F 23.0 °F 65% 29.76 in 10.0 mi West 16.1 mph 20.7 mph N/A   Overcast
8:15 AM 33.8 °F 25.3 °F 23.0 °F 65% 29.77 in 10.0 mi West 11.5 mph 18.4 mph N/A   Overcast
8:35 AM 32.0 °F 24.2 °F 24.8 °F 75% 29.78 in 10.0 mi West 9.2 mph 16.1 mph N/A   Overcast
8:55 AM 32.0 °F 24.2 °F 24.8 °F 75% 29.78 in 10.0 mi West 9.2 mph - N/A   Overcast
9:15 AM 32.0 °F 24.2 °F 26.6 °F 80% 29.79 in 10.0 mi WNW 9.2 mph 16.1 mph N/A   Overcast
9:55 AM 33.8 °F 24.8 °F 26.6 °F 75% 29.80 in 10.0 mi NW 12.7 mph 20.7 mph N/A   Overcast
10:15 AM 32.0 °F 22.1 °F 28.4 °F 87% 29.81 in 10.0 mi WNW 13.8 mph 20.7 mph N/A Snow Light Snow
10:35 AM 33.8 °F 25.3 °F 28.4 °F 81% 29.81 in 10.0 mi West 11.5 mph 19.6 mph N/A   Overcast
10:55 AM 33.8 °F 24.8 °F 28.4 °F 81% 29.81 in 10.0 mi WNW 12.7 mph 25.3 mph N/A   Overcast
11:15 AM 33.8 °F 24.8 °F 26.6 °F 75% 29.81 in 10.0 mi WNW 12.7 mph 20.7 mph N/A   Overcast
11:35 AM 35.6 °F 25.9 °F 26.6 °F 70% 29.81 in 10.0 mi West 16.1 mph 25.3 mph N/A   Mostly Cloudy
11:55 AM 35.6 °F 25.2 °F 24.8 °F 65% 29.80 in 10.0 mi WNW 18.4 mph 29.9 mph N/A   Scattered Clouds
12:15 PM 35.6 °F 25.2 °F 21.2 °F 56% 29.80 in 10.0 mi WNW 18.4 mph 27.6 mph N/A   Scattered Clouds
12:35 PM 37.4 °F 26.1 °F 19.4 °F 48% 29.79 in 10.0 mi WNW 24.2 mph 39.1 mph N/A   Clear
12:55 PM 37.4 °F 27.2 °F 21.2 °F 52% 29.79 in 10.0 mi WNW 19.6 mph 31.1 mph N/A   Clear
1:15 PM 37.4 °F 26.9 °F 19.4 °F 48% 29.79 in 10.0 mi West 20.7 mph 32.2 mph N/A   Clear
1:35 PM 39.2 °F 28.5 °F 19.4 °F 45% 29.80 in 10.0 mi WNW 24.2 mph 32.2 mph N/A   Clear
1:55 PM 39.2 °F 29.3 °F 19.4 °F 45% 29.80 in 10.0 mi West 20.7 mph 31.1 mph N/A   Clear
2:15 PM 39.2 °F 29.6 °F 21.2 °F 49% 29.80 in 10.0 mi West 19.6 mph 26.5 mph N/A   Clear
2:35 PM 39.2 °F 34.2 °F 21.2 °F 49% 29.81 in 10.0 mi NW 6.9 mph 25.3 mph N/A   Clear
2:55 PM 39.2 °F 29.8 °F 21.2 °F 49% 29.81 in 10.0 mi WNW 18.4 mph 24.2 mph N/A   Clear
3:15 PM 39.2 °F 30.2 °F 23.0 °F 52% 29.81 in 10.0 mi West 17.3 mph 27.6 mph N/A   Clear
3:35 PM 39.2 °F 29.6 °F 23.0 °F 52% 29.81 in 10.0 mi West 19.6 mph 27.6 mph N/A   Clear
3:55 PM 39.2 °F 29.6 °F 23.0 °F 52% 29.82 in 10.0 mi WNW 19.6 mph 29.9 mph N/A   Clear
4:15 PM 39.2 °F 28.5 °F 24.8 °F 56% 29.83 in 10.0 mi WNW 24.2 mph 31.1 mph N/A   Clear
4:35 PM 39.2 °F 30.2 °F 24.8 °F 56% 29.84 in 10.0 mi West 17.3 mph 29.9 mph N/A   Clear
4:55 PM 37.4 °F 26.9 °F 24.8 °F 60% 29.84 in 10.0 mi West 20.7 mph 27.6 mph N/A   Clear
5:15 PM 37.4 °F 26.9 °F 24.8 °F 60% 29.85 in 10.0 mi West 20.7 mph 26.5 mph N/A   Clear
5:35 PM 37.4 °F 27.2 °F 24.8 °F 60% 29.85 in 10.0 mi West 19.6 mph 27.6 mph N/A   Clear
5:55 PM 35.6 °F 25.2 °F 24.8 °F 65% 29.86 in 10.0 mi West 18.4 mph 24.2 mph N/A   Clear
6:15 PM 35.6 °F 25.9 °F 24.8 °F 65% 29.87 in 10.0 mi WNW 16.1 mph 29.9 mph N/A   Clear
6:35 PM 35.6 °F 26.6 °F 24.8 °F 65% 29.89 in 10.0 mi WNW 13.8 mph 24.2 mph N/A   Scattered Clouds
6:55 PM 35.6 °F 25.2 °F 24.8 °F 65% 29.90 in 10.0 mi WNW 18.4 mph 24.2 mph N/A   Mostly Cloudy
7:15 PM 33.8 °F 22.8 °F 24.8 °F 70% 29.90 in 10.0 mi WNW 18.4 mph 21.9 mph N/A   Scattered Clouds
7:35 PM 33.8 °F 23.2 °F 24.8 °F 70% 29.90 in 10.0 mi WNW 17.3 mph 23.0 mph N/A   Scattered Clouds
7:55 PM 33.8 °F 21.9 °F 24.8 °F 70% 29.89 in 10.0 mi WNW 21.9 mph 31.1 mph N/A   Clear
8:15 PM 33.8 °F 21.6 °F 24.8 °F 70% 29.89 in 10.0 mi WNW 23.0 mph 28.8 mph N/A   Clear
8:35 PM 33.8 °F 21.9 °F 24.8 °F 70% 29.90 in 10.0 mi WNW 21.9 mph 34.5 mph N/A   Clear
8:55 PM 33.8 °F 22.5 °F 24.8 °F 70% 29.90 in 10.0 mi WNW 19.6 mph 34.5 mph N/A   Clear
9:15 PM 33.8 °F 22.5 °F 24.8 °F 70% 29.90 in 10.0 mi WNW 19.6 mph 26.5 mph N/A   Clear
9:35 PM 32.0 °F 19.8 °F 24.8 °F 75% 29.90 in 10.0 mi WNW 20.7 mph 26.5 mph N/A   Clear
9:55 PM 32.0 °F 21.2 °F 24.8 °F 75% 29.90 in 10.0 mi WNW 16.1 mph 24.2 mph N/A   Clear
10:35 PM 32.0 °F 20.1 °F 24.8 °F 75% 29.91 in 10.0 mi WNW 19.6 mph 26.5 mph N/A   Clear
10:55 PM 30.2 °F 18.5 °F 24.8 °F 80% 29.91 in 10.0 mi WNW 17.3 mph 23.0 mph N/A   Clear
11:15 PM 30.2 °F 18.5 °F 24.8 °F 80% 29.91 in 10.0 mi WNW 17.3 mph 24.2 mph N/A   Scattered Clouds
11:35 PM 30.2 °F 17.8 °F 24.8 °F 80% 29.92 in 10.0 mi NW 19.6 mph 25.3 mph N/A   Scattered Clouds
11:55 PM 30.2 °F 18.5 °F 24.8 °F 80% 29.92 in 10.0 mi WNW 17.3 mph 27.6 mph N/A   Scattered Clouds